DO8TBO-15 Weather Reports


Display with metric or nautical units.
time (UTC)temp
F
wind
direction
speed
MPH
gust
MPH
rain 1hr
in
rain 24hr
in
rain mn
in
humidity
%
barometer
mb
20260510185603 66 45 0.0 4.0 0.00 0.00 0.00 1006.0
20260510184558 67 67 1.0 5.0 0.00 0.00 0.00 1006.0
20260510183554 67 45 0.0 6.0 0.00 0.00 0.00 1005.9
20260510182551 68 315 1.0 4.0 0.00 0.00 0.00 1005.9
20260510181546 68 351 1.0 4.0 0.00 0.00 0.00 1005.9
20260510180543 69 0 1.0 2.0 0.00 0.00 0.00 1006.1
20260510175539 70 49 0.0 3.0 0.00 0.00 0.00 1006.0
20260510174535 71 0.0 2.0 0.00 0.00 0.00 1006.0
20260510173532 73 18 0.0 4.0 0.00 0.00 0.00 1006.0
20260510172527 74 0.0 2.0 0.00 0.00 0.00 1006.0
20260510171524 75 0.0 1.0 0.00 0.00 0.00 1006.0
20260510170520 75 0.0 0.0 0.00 0.00 0.00 1006.1
20260510165516 76 45 1.0 4.0 0.00 0.00 0.00 1006.3
20260510164613 75 45 0.0 3.0 0.00 0.00 0.00 1006.6
20260510163609 76 90 0.0 3.0 0.00 0.00 0.00 1006.7
20260510162605 79 180 0.0 2.0 0.00 0.00 0.00 1006.8
20260510161602 82 0.0 1.0 0.00 0.00 0.00 1006.9
20260510160557 82 0.0 1.0 0.00 0.00 0.00 1007.0
20260510155554 82 0.0 0.0 0.00 0.00 0.00 1007.1
20260510154551 81 0 0.0 4.0 0.00 0.00 0.00 1007.3
20260510153547 81 23 0.0 2.0 0.00 0.00 0.00 1007.6
20260510152543 80 247 1.0 4.0 0.00 0.00 0.00 1007.6
20260510151539 81 0 0.0 3.0 0.00 0.00 0.00 1007.7
20260510150535 81 0.0 2.0 0.00 0.00 0.00 1007.8
20260510145531 81 135 0.0 2.0 0.00 0.00 0.00 1008.0
20260510144527 80 189 1.0 4.0 0.00 0.00 0.00 1008.1
20260510143524 79 158 0.0 2.0 0.00 0.00 0.00 1008.2
20260510142520 80 90 1.0 4.0 0.00 0.00 0.00 1008.3
20260510141521 77 0 0.0 2.0 0.00 0.00 0.00 1008.4
20260510140613 78 0.0 2.0 0.00 0.00 0.00 1008.6
20260510135609 79 0.0 2.0 0.00 0.00 0.00 1008.6
20260510134605 80 90 0.0 6.0 0.00 0.00 0.00 1008.8
20260510133601 81 135 0.0 3.0 0.00 0.00 0.00 1008.9
20260510132557 80 11 1.0 4.0 0.00 0.00 0.00 1008.9
20260510131553 80 83 1.0 3.0 0.00 0.00 0.00 1009.1
20260510130549 80 225 2.0 3.0 0.00 0.00 0.00 1009.3
20260510125546 79 300 0.0 5.0 0.00 0.00 0.00 1009.5
20260510124542 79 18 0.0 3.0 0.00 0.00 0.00 1009.7
20260510123538 79 0.0 0.0 0.00 0.00 0.00 1009.7
20260510122537 79 0.0 2.0 0.00 0.00 0.00 1009.9
20260510121531 78 180 0.0 3.0 0.00 0.00 0.00 1010.0
20260510120527 79 0.0 0.0 0.00 0.00 0.00 1010.2
20260510114520 77 90 1.0 4.0 0.00 0.00 0.00 1010.5
20260510113516 77 0.0 2.0 0.00 0.00 0.00 1010.8
20260510112613 77 102 0.0 3.0 0.00 0.00 0.00 1010.8
20260510111608 76 144 0.0 3.0 0.00 0.00 0.00 1010.9
20260510110605 76 0.0 1.0 0.00 0.00 0.00 1010.9
20260510105602 75 360 1.0 4.0 0.00 0.00 0.00 1011.0
20260510104558 74 24 1.0 5.0 0.00 0.00 0.00 1011.2
20260510103555 74 45 0.0 3.0 0.00 0.00 0.00 1011.4
20260510102550 74 180 0.0 2.0 0.00 0.00 0.00 1011.3
20260510101547 73 349 1.0 5.0 0.00 0.00 0.00 1011.4
20260510100543 74 0.0 2.0 0.00 0.00 0.00 1011.6
20260510095540 73 0.0 2.0 0.00 0.00 0.00 1011.8
20260510094535 73 0.0 1.0 0.00 0.00 0.00 1011.8
20260510093532 72 135 0.0 4.0 0.00 0.00 0.00 1011.9
20260510092558 71 0.0 2.0 0.00 0.00 0.00 1011.9
20260510091555 70 3 1.0 4.0 0.00 0.00 0.00 1012.1
20260510090551 70 0.0 0.0 0.00 0.00 0.00 1012.1
20260510085547 70 143 1.0 3.0 0.00 0.00 0.00 1012.3
20260510084543 69 45 0.0 2.0 0.00 0.00 0.00 1012.2
20260510083540 69 135 0.0 2.0 0.00 0.00 0.00 1012.4
20260510082537 69 225 0.0 3.0 0.00 0.00 0.00 1012.5
20260510081532 68 0.0 2.0 0.00 0.00 0.00 1012.6
20260510080528 68 0.0 2.0 0.00 0.00 0.00 1012.7
20260510075525 67 0.0 2.0 0.00 0.00 0.00 1012.8
20260510074522 66 0.0 2.0 0.00 0.00 0.00 1012.8
20260510072615 65 0.0 2.0 0.00 0.00 0.00 1012.8
20260510071611 64 80 1.0 4.0 0.00 0.00 0.00 1013.0
20260510070607 64 0.0 0.0 0.00 0.00 0.00 1013.0
20260510065603 63 45 0.0 4.0 0.00 0.00 0.00 1013.2
20260510064559 62 23 1.0 4.0 0.00 0.00 0.00 1013.2
20260510063554 61 0.0 2.0 0.00 0.00 0.00 1013.3
20260510061547 54 0.0 2.0 0.00 0.00 0.00 1013.3
20260510060544 53 0.0 0.0 0.00 0.00 0.00 1013.6
20260510055540 53 0.0 2.0 0.00 0.00 0.00 1013.6
20260510054536 53 0.0 0.0 0.00 0.00 0.00 1013.6
20260510053532 53 0.0 0.0 0.00 0.00 0.00 1013.6
20260510052529 53 0.0 0.0 0.00 0.00 0.00 1013.6
20260510051525 52 0.0 0.0 0.00 0.00 0.00 1013.6
20260510050521 52 0.0 0.0 0.00 0.00 0.00 1013.7
20260510045518 52 0.0 0.0 0.00 0.00 0.00 1013.8
20260510044614 51 0.0 0.0 0.00 0.00 0.00 1013.8
20260510042606 51 0.0 0.0 0.00 0.00 0.00 1014.0
20260510041603 50 0.0 0.0 0.00 0.00 0.00 1014.0
20260510040559 50 0.0 0.0 0.00 0.00 0.00 1013.9
20260510035555 50 0.0 0.0 0.00 0.00 0.00 1014.0
20260510034551 50 0.0 0.0 0.00 0.00 0.00 1013.9
20260510032545 50 0.0 1.0 0.00 0.00 0.00 1013.9
20260510031540 50 0.0 2.0 0.00 0.00 0.00 1013.9
20260510030537 49 0.0 0.0 0.00 0.00 0.00 1013.9
20260510025532 50 0.0 1.0 0.00 0.00 0.00 1013.9
20260510024529 50 0.0 0.0 0.00 0.00 0.00 1014.1
20260510023526 50 0.0 0.0 0.00 0.00 0.00 1014.1
20260510021518 50 0.0 1.0 0.00 0.00 0.00 1014.1
20260510020614 50 0.0 0.0 0.00 0.00 0.00 1014.1
20260510015610 50 0.0 0.0 0.00 0.00 0.00 1014.2
20260510014607 50 0.0 0.0 0.00 0.00 0.00 1014.3
20260510012559 51 0.0 0.0 0.00 0.00 0.00 1014.4
20260510011555 51 315 0.0 2.0 0.00 0.00 0.00 1014.6
20260510010551 51 0.0 0.0 0.00 0.00 0.00 1014.7
20260510004544 52 0.0 0.0 0.00 0.00 0.00 1014.8
20260510003540 52 0.0 0.0 0.00 0.00 0.00 1015.0
20260510002536 52 0.0 1.0 0.00 0.00 0.00 1015.0
20260510001532 52 0.0 2.0 0.00 0.00 0.00 1015.1
20260509235524 52 0.0 0.0 0.00 0.00 0.00 1015.2
20260509234521 52 0.0 0.0 0.00 0.00 0.00 1015.3
20260509233517 52 0.0 0.0 0.00 0.00 0.00 1015.6
20260509232613 52 0.0 0.0 0.00 0.00 0.00 1015.8
20260509230606 54 0.0 0.0 0.00 0.00 0.00 1015.8
20260509225603 54 0.0 0.0 0.00 0.00 0.00 1015.8
20260509224558 54 0.0 1.0 0.00 0.00 0.00 1015.9
20260509222551 55 0.0 0.0 0.00 0.00 0.00 1015.8
20260509220544 56 0.0 0.0 0.00 0.00 0.00 1015.9
20260509215540 56 0.0 0.0 0.00 0.00 0.00 1016.0
20260509214535 56 0.0 2.0 0.00 0.00 0.00 1015.9
20260509213532 57 0.0 0.0 0.00 0.00 0.00 1015.9
20260509211524 57 0.0 0.0 0.00 0.00 0.00 1015.9
20260509210520 57 0.0 0.0 0.00 0.00 0.00 1015.9
20260509205516 57 0.0 1.0 0.00 0.00 0.00 1016.0
20260509204614 57 0.0 1.0 0.00 0.00 0.00 1016.0
20260509203609 57 0 0.0 3.0 0.00 0.00 0.00 1016.0
20260509202605 57 0.0 0.0 0.00 0.00 0.00 1016.0
20260509201602 57 0.0 0.0 0.00 0.00 0.00 1015.9
20260509200558 58 0.0 0.0 0.00 0.00 0.00 1015.9
20260509195554 58 0.0 0.0 0.00 0.00 0.00 1015.9
20260509194550 58 0.0 0.0 0.00 0.00 0.00 1015.8
20260509193547 59 0.0 0.0 0.00 0.00 0.00 1015.7
20260509192543 59 0.0 0.0 0.00 0.00 0.00 1015.7
20260509191539 60 0.0 2.0 0.00 0.00 0.00 1015.5
20260509190536 61 0.0 1.0 0.00 0.00 0.00 1015.3